Tracking 27086 objects as of 22-Mar-2023
HD Live streaming from Space Station
objects crossing your sky now

STARLINK-5382

Track STARLINK-5382 now!
10-day predictions
STARLINK-5382 is classified as:


NORAD ID: 54820
Int'l Code: 2022-177A
Perigee: 565.4 km
Apogee: 567.1 km
Inclination: 43.0 °
Period: 95.8 minutes
Semi major axis: 6937 km
RCS: Unknown
Launch date: December 28, 2022
Source: United States (US)
Launch site: AIR FORCE EASTERN TEST RANGE (AFETR)
Your satellite tracking list
Your tracking list is empty




NASA's NSSDC Master Catalog

Two Line Element Set (TLE):
1 54820U 22177A   23080.77822199  .00000438  00000-0  47525-4 0  9998
2 54820  43.0009 263.2820 0001245 270.2057  89.8642 15.02532897 13907
Source of the keplerian elements: AFSPC